This is the latest recevied weather packets stored in our database for station/object CQ0XPG-11. If no packets are shown the sender has not sent any weather packets the latest 1 day(s).
| Time | Temp. | Humidity | Pressure | Rain* | Wind** | Luminosity | Snow |
|---|---|---|---|---|---|---|---|
| 1777978974 | 15.56° C | 76% | 1007.7 hPa | 0 mm | 2.68 m/s, 225° | - | - |
| 1777978655 | 15.56° C | 72% | 1007.9 hPa | 0 mm | 1.34 m/s, 225° | - | - |
| 1777978362 | 15.56° C | 73% | 1007.8 hPa | 0 mm | 1.79 m/s, 225° | - | - |
| 1777978090 | 15° C | 92% | 1007.9 hPa | 0 mm | 1.79 m/s, 225° | - | - |
| 1777977755 | 14.44° C | 94% | 1007.8 hPa | 0 mm | 0.45 m/s, 225° | - | - |
| 1777977442 | 14.44° C | 98% | 1007.8 hPa | 0 mm | 0 m/s | - | - |
| 1777977149 | 14.44° C | 93% | 1007.8 hPa | 0 mm | 0.89 m/s, 225° | - | - |
| 1777976575 | 14.44° C | 96% | 1007.8 hPa | 0 mm | 1.34 m/s, 225° | - | - |
| 1777975954 | 14.44° C | 95% | 1007.8 hPa | 0 mm | 2.24 m/s, 225° | - | - |
| 1777975624 | 14.44° C | 100% | 1007.9 hPa | 0 mm | 0.89 m/s, 225° | - | - |
| 1777975346 | 14.44° C | 100% | 1007.9 hPa | 0 mm | 0 m/s | - | - |
| 1777975017 | 14.44° C | 100% | 1007.9 hPa | 0 mm | 1.34 m/s, 225° | - | - |
| 1777974718 | 14.44° C | 100% | 1007.9 hPa | 0 mm | 0 m/s | - | - |
| 1777974411 | 15° C | 100% | 1008 hPa | 0 mm | 0.45 m/s, 225° | - | - |
| 1777974123 | 14.44° C | 100% | 1007.9 hPa | 0 mm | 0.45 m/s, 225° | - | - |
| 1777973804 | 14.44° C | 100% | 1007.9 hPa | 0 mm | 0.89 m/s, 225° | - | - |
| 1777973191 | 13.33° C | 100% | 1008 hPa | 0 mm | 0.45 m/s, 225° | - | - |
| 1777972904 | 12.78° C | 100% | 1008 hPa | 0 mm | 0.45 m/s, 225° | - | - |
| 1777972303 | 11.67° C | 100% | 1008 hPa | 0 mm | 0 m/s | - | - |
| 1777971992 | 11.67° C | 100% | 1008.1 hPa | 0 mm | 0 m/s | - | - |
| 1777971717 | 12.22° C | 100% | 1008.1 hPa | 0 mm | 0.45 m/s, 225° | - | - |
| 1777971389 | 12.22° C | 100% | 1008 hPa | 0 mm | 0 m/s | - | - |
| 1777971083 | 12.78° C | 100% | 1008 hPa | 0 mm | 0.45 m/s, 225° | - | - |
| 1777970486 | 11.67° C | 100% | 1007.8 hPa | 0 mm | 0.89 m/s, 225° | - | - |
| 1777970187 | 11.67° C | 100% | 1007.9 hPa | 0 mm | 0.45 m/s, 225° | - | - |
* Rain since midnight (hover to see other rain measurements)
** Current wind speed in m/s (hover to see current wind gust speed)